Regional Weather Roundup
Issued by NWS Newport/Morehead, NC

Home | Current Version | Previous Version | Text Only | Print | Product List | Glossary On
Versions: 1 2 3 4 5 6 7 8 9 10 11 12 13 14 15 16 17 18 19 20 21 22 23 24 25 26 27 28 29 30 31 32 33 34 35 36 37 38 39 40 41 42 43 44 45 46 47 48 49 50
000
ASUS42 KMHX 282022
RWRMHX
WEATHER ROUNDUP FOR EASTERN NORTH CAROLINA
NATIONAL WEATHER SERVICE NEWPORT/MOREHEAD CITY NC
400 PM EDT MON JUL 28 2014

NOTE: "FAIR" INDICATES FEW OR NO CLOUDS BELOW 12,000 FEET
WITH NO SIGNIFICANT WEATHER AND/OR OBSTRUCTIONS TO VISIBILITY

NCZ015>017-031-032-045>047-102-103-282100-
NORTH COAST

CITY           SKY/WX    TMP DP  RH WIND       PRES   REMARKS
EDENTON        SUNNY     87  66  49 W9G17     29.76S
ELIZABETH CITY MOSUNNY   87  65  47 W15G24    29.74S
KITTY HAWK     CLEAR     87  67  51 W12G18    29.73S
MANTEO         NOT AVBL

$$

NCZ045>047-081-094-103-104-282100-
CENTRAL COAST

CITY           SKY/WX    TMP DP  RH WIND       PRES   REMARKS
FRISCO         PTSUNNY   86  78  77 SW10G17   29.77S
SWANQUARTER      N/A     90 N/A N/A W7G17     29.74S

$$

NCZ095-097-098-100-101-282100-
SOUTHERN COAST

CITY           SKY/WX    TMP DP  RH WIND       PRES   REMARKS
BEAUFORT       PTSUNNY   87  79  76 SW17      29.77F HX 101
CEDAR ISLAND     N/A     88 N/A N/A S8G14     29.82S
JACKSONVILLE   SUNNY     89  72  56 SW12      29.76F
NEWPORT        NOT AVBL
PINEY ISLAND   MOCLDY    89  74  60 W10       29.76F
WILMINGTON     PTSUNNY   89  77  67 SW9       29.77F HX 101


$$

NCZ011>013-027>030-043-044-078>080-089-090>093-098-282100-
COASTAL PLAIN

CITY           SKY/WX    TMP DP  RH WIND       PRES   REMARKS
AHOSKIE        SUNNY     85  64  48 CALM      29.77S
CLINTON        PTSUNNY   92  70  49 N5        29.76F
ELIZABETHTOWN  SUNNY     91  69  48 SW8       29.76F
GOLDSBORO      SUNNY     90  68  48 W14       29.75F
GREENVILLE     MOSUNNY   88  68  51 NW9       29.80S
HAVELOCK       PTSUNNY   88  72  58 SW10      29.77F
KENANSVILLE    PTSUNNY   89  67  49 N6        29.77F
KINSTON        MOSUNNY   90  66  45 NW12      29.77F
NEW BERN       MOSUNNY   91  70  49 VRB3      29.77F
RICHLANDS      MOSUNNY   91  72  52 SW10G16   29.75F
ROANOKE RAPIDS NOT AVBL
ROCKY MOUNT    MOSUNNY   88  63  43 W9        29.78S
WASHINGTON     MOSUNNY   88  66  48 W9        29.76F
WHITEVILLE     SUNNY     91  74  56 W6        29.76F HX 100

$$

AMZ130-135-150-152-154-156-158-170-250-252-270-ANZ085-086-088-633-658-670-282100-
MARINE OBSERVATIONS

STATION/POSITION TIME  TEMP    WIND        PRES    WAVE   SWELL
                       AIR SEA DIR/SP/G            HT/PER HT/PER
                 (UTC) (F)     (DEG/KT/KT) (MB)    (FT/S) (FT/S)
CHESAPEAKE LIGHT NOT AVBL
BUOY 44014       2000   81 79  240/ 16/ 17 1005.9    4/ 7   2/ 9
DUCK             2000   85 59  250/ 15/ 19 1006.4
2E DUCK          2000                        N/A     2/ 8
OREGON INLET     2000   88 82  270/ 12/ 16 1007.2
BUOY 44095       2000      79                N/A     3/ 7
20E OREGON INLET NOT AVBL
HATTERAS CG      2000   83 81  220/ 11/ 15 1008.6
DIAMOND BUOY     2000          VRB 16/ 17  1008.0    5/ 7   2/10
CAPE LOOKOUT     2000   84     240/ 11/ 16 1008.4
BEAUFORT LAB     2000   85 83  220/  9/ 14 1008.1
30 SE NEW RIVER  2000   83 82  230/ 14/ 16 1008.9    5/ 7   2/ 9
5 SE WRIGHTSVILL 2000   81 82  220/ 14/ 16   N/A
BUOY 41002       1931   82 81  230/ 16/ 19 1013.4    6/ 7   2/12
BUOY 41004       2000   84 84  220/ 17/ 21 1009.4    5/ 6   2/ 9

$$



USA.gov is the U.S. government's official web portal to all federal, state and local government web resources and services.